Home   Weather   Kuala Lumpur   Past weeks
Flag for Malaysia

Past Weather in Kuala Lumpur, Malaysia — Yesterday and Last 2 Weeks

Now
77 °F

Passing clouds.


Feels Like: 78 °F
Forecast: 89 / 74 °F
Wind: No wind

Location: Sultan Abdul Aziz Shah-Subang

Current Time: Oct 23, 2019 at 9:20:50 pm

Latest Report: Oct 23, 2019 at 8:00 pm


Visibility: 6 mi

Pressure: 29.80 "Hg

Humidity: 94%

Dew Point: 75 °F

Location of Kuala LumpurLocation

Past Weather in Kuala Lumpur — Graph

°F

Kuala Lumpur Temperature Yesterday

Maximum temperature yesterday: 88 °F (at 2:00 pm)
Minimum temperature yesterday: 77 °F (at 1:00 am)
Average temperature yesterday: 81 °F

High & Low Weather Summary for the Past Weeks

 TemperatureHumidityPressure
High93 °F (Oct 11, 2:00 pm)100% (Oct 9, 1:00 am)29.92 "Hg (Oct 9, 1:00 am)
Low73 °F (Oct 9, 5:00 am)52% (Oct 15, 2:00 pm)29.68 "Hg (Oct 23, 4:00 pm)
Average81 °F86%29.82 "Hg
* Reported Oct 8 8:00 pm — Oct 23 8:00 pm, Kuala Lumpur. Weather by CustomWeather, © 2019

Note: Actual official high and low records may vary slightly from our data, if they occured in-between our weather recording intervals... More about our weather records

Advertising

Kuala Lumpur Weather History for the Previous 24 Hours

Scroll right to see more
 ConditionsComfort  
Time TempWeatherWind HumidityBarometerVisibility
8:00 pm
Wed, Oct 23
77 °FPassing clouds.No wind94%29.80 "Hg6 mi
7:00 pm75 °FLight rain. Passing clouds.5 mph100%29.77 "Hg6 mi
6:00 pm77 °FThunderstorms. Scattered clouds.5 mph94%29.77 "Hg2 mi
5:00 pm77 °FThunderstorms. Scattered clouds.21 mph94%29.71 "Hg1 mi
4:00 pm88 °FPassing clouds.12 mph75%29.68 "HgN/A
3:00 pm93 °FScattered clouds.9 mph56%29.71 "HgN/A
2:00 pm91 °FPassing clouds.8 mph56%29.74 "HgN/A
1:00 pm91 °FPassing clouds.3 mph59%29.77 "HgN/A
12:00 pm90 °FPassing clouds.3 mph63%29.83 "HgN/A
11:00 am88 °FPassing clouds.3 mph66%29.83 "HgN/A
10:00 am84 °FPassing clouds.3 mph79%29.86 "HgN/A
9:00 am79 °FPassing clouds.2 mph94%29.86 "HgN/A
8:00 am77 °FPassing clouds.No wind94%29.83 "Hg6 mi
7:00 am75 °FPassing clouds.No wind100%29.80 "Hg6 mi
6:00 am75 °FPassing clouds.No wind100%29.77 "Hg5 mi
5:00 am75 °FPassing clouds.No wind100%29.77 "Hg5 mi
4:00 am75 °FPassing clouds.No wind100%29.77 "Hg5 mi
3:00 am77 °FPassing clouds.No wind94%29.80 "Hg4 mi
2:00 am77 °FPassing clouds.No wind94%29.83 "Hg4 mi
1:00 am77 °FLight rain. Passing clouds.No wind94%29.83 "Hg4 mi
12:00 am77 °FLight rain. Passing clouds.No wind94%29.86 "Hg5 mi
11:00 pm
Tue, Oct 22
77 °FLight rain. Passing clouds.2 mph94%29.89 "Hg3 mi
10:00 pm77 °FThunderstorms. Passing clouds.No wind100%29.86 "Hg4 mi
9:00 pm77 °FThunderstorms. Passing clouds.No wind94%29.83 "Hg4 mi
Weather by CustomWeather, © 2019

See weather overview